Location: Kitchener-Waterloo
(43.4500°N, 80.5000°W)
Time: 12:49:36
(UTC-04:00)

Daily predictions for brighter satellites

Satellite Brightness Start Highest point End
(mag) Time Altitude Azimuth Time Altitude Azimuth Time Altitude Azimuth
Cosmos 923 Rocket 4.0 21:32:21 10° NNW 21:37:36 77° ENE 21:42:47 10° SSE
Cosmos 1833 4.2 21:35:16 10° SSW 21:40:57 71° ESE 21:46:36 10° NNE
USA 229 DEB 3.8 21:34:16 10° SSW 21:41:12 89° ESE 21:48:16 10° NE
Tiangong 1 2.7 21:39:11 10° SSW 21:41:18 17° SSE 21:43:25 10° ESE
USA 229 3.8 21:34:22 10° SSW 21:41:18 88° SE 21:48:22 10° NE
YAOGAN 6 3.9 21:38:57 10° SE 21:41:59 25° ENE 21:44:59 10° NNE
Cosmos 2333 Rocket 4.0 21:39:21 10° N 21:43:28 20° NE 21:47:35 10° E
AVUM R/B 2.9 21:42:39 10° SSW 21:44:59 67° WNW 21:47:33 10° NNE
Meteor 2-20 4.5 21:41:40 10° S 21:47:49 84° E 21:53:58 10° N
ATLAS CENTAUR R/B 4.2 21:48:27 10° W 21:49:54 11° WSW 21:51:19 10° SW
Cosmos 773 Rocket 4.4 21:45:05 10° NNW 21:50:15 66° WSW 21:55:25 10° S
Cosmos 1939 Rocket 2.9 21:47:12 10° S 21:51:09 81° WSW 21:55:03 10° NNW
H-2A R/B 2.3 21:47:02 10° S 21:51:33 78° WSW 21:56:06 10° NNW
Cosmos 1707 Rocket 4.5 21:47:49 10° N 21:51:46 32° ENE 21:55:42 10° SE
Cosmos 1437 Rocket 3.3 21:48:25 10° NNW 21:52:11 59° W 21:55:59 10° S
COSMOS 2428 3.1 21:50:18 10° NNW 21:55:51 51° ENE 22:01:17 10° SE
MetOp-A 4.3 21:52:35 10° SSE 21:57:50 61° ENE 22:03:08 10° N
SPOT 5 2.8 21:54:06 10° SSE 21:58:39 75° ENE 22:03:30 10° N
NOSS 3-1 (A) 4.0 21:55:45 10° S 22:00:57 34° ESE 22:06:37 10° NE
BREEZE-M DEB (TANK) 3.8 21:59:13 10° NW 22:00:58 21° N 22:02:47 10° ENE
PSLV R/B 3.1 22:00:44 10° SSE 22:03:48 74° ENE 22:06:51 10° N
Cosmos 2219 Rocket 3.3 21:59:00 10° N 22:04:00 32° NE 22:08:52 10° ESE
Cosmos 304 Rocket 3.9 21:59:24 10° NNW 22:04:13 75° WSW 22:09:00 10° SSE
ARGOS 3.8 21:59:31 10° SE 22:04:33 42° ENE 22:09:35 10° N
Nadezhda 2 Rocket 4.5 22:04:19 10° S 22:10:25 72° E 22:16:30 10° NNE
Cosmos 2237 4.3 22:11:44 10° NNW 22:17:30 80° ENE 22:22:30 14° SSE
Cosmos 1437 3.4 22:17:00 10° SSW 22:20:15 58° WNW 22:23:31 10° N
Cosmos 1726 2.5 22:17:00 10° N 22:20:41 48° E 22:23:25 17° SSE
Cosmos 1328 3.9 22:17:17 10° SSW 22:21:14 78° W 22:25:13 10° N
ATLAS 2AS CENTAUR R/B 4.0 22:18:20 11° SSE 22:23:38 24° ESE 22:29:39 10° ENE
Envisat 3.8 22:20:52 10° S 22:25:45 48° W 22:30:42 10° NNW
CZ-4C R/B 4.1 22:24:04 17° ESE 22:26:06 29° ENE 22:29:10 10° N
Cosmos 292 Rocket 4.2 22:22:49 10° N 22:27:26 47° ENE 22:30:47 18° SE
Cosmos 2219 3.3 22:23:55 10° SSW 22:29:41 88° WNW 22:35:29 10° NNE
Landsat 7 4.5 22:27:03 16° SE 22:30:25 41° ENE 22:34:53 10° N
ERBS 4.4 22:32:03 14° E 22:32:03 14° E 22:33:01 10° E
Delta 2 Rocket 4.2 22:28:09 10° SW 22:30:59 22° S 22:31:53 20° SSE
Cosmos 2237 Rocket 3.1 22:30:19 10° N 22:35:37 37° ENE 22:39:42 16° ESE
Cosmos 2333 4.2 22:30:07 10° NNW 22:35:52 83° ENE 22:40:15 18° SSE
ATLAS 3B R/B 4.0 22:31:19 10° NNW 22:37:39 32° NE 22:43:36 10° E
Cosmos 1271 Rocket 3.0 22:34:07 10° N 22:37:52 51° ENE 22:40:05 22° SE
Cosmos 2151 4.3 22:38:17 10° SW 22:42:13 38° WNW 22:46:10 10° N
Meteor 1-4 Rocket 2.7 22:39:41 10° N 22:43:26 65° ENE 22:45:29 24° SSE
Cosmos 1703 3.6 22:41:16 22° SSE 22:43:29 46° E 22:47:15 10° NNE
SL-14 R/B 3.2 22:40:06 12° S 22:43:43 89° E 22:47:45 10° N
Cosmos 2242 Rocket 3.6 22:39:19 10° N 22:43:47 69° E 22:46:44 21° SSE
Cosmos 1346 4.5 22:45:04 22° E 22:45:19 22° E 22:47:45 10° NE
Meteor 1-27 4.4 22:40:04 10° NNW 22:45:45 75° W 22:50:34 14° S
Cosmos 1937 Rocket 3.6 22:41:24 12° S 22:46:04 53° ESE 22:51:08 10° NNE
Terra 2.5 22:43:25 20° SE 22:46:16 41° ENE 22:50:45 10° N
Cosmos 2360 Rocket 3.6 22:41:57 10° NW 22:46:53 31° WSW 22:51:48 10° SSW
NOSS 3-1 (C) 3.4 22:41:26 10° SW 22:47:20 90° N 22:53:56 10° NE
Cosmos 2298 Rocket 4.0 22:42:23 10° SSW 22:47:42 89° ESE 22:53:03 10° NNE
Iridium 2 4.0 22:47:14 25° SSE 22:49:09 48° E 22:52:53 10° NNE
Lacrosse 4 Rocket 3.7 22:47:10 10° N 22:50:12 18° NE 22:53:15 10° E
Cosmos 1862 Rocket 4.3 22:46:31 10° N 22:50:33 36° ENE 22:52:33 23° SE
NOAA 11 4.2 22:47:19 17° SSE 22:51:34 83° WSW 22:57:04 10° NNW
Sich 1 3.1 22:48:45 12° S 22:52:50 84° W 22:57:15 10° N
CARTOSAT-1 4.0 22:51:07 24° SE 22:53:24 48° ENE 22:57:35 10° N
FALCON 9 R/B 4.3 22:24:27 10° WSW 22:53:47 57° S 23:00:29 14° ESE
USA 245 3.4 22:53:36 22° SSW 22:54:43 34° W 22:56:52 10° NNW
Cosmos 1633 Rocket 3.1 22:52:39 13° S 22:56:30 81° W 23:00:54 10° N
Cosmos 990 Rocket 4.2 22:53:44 20° SSE 22:56:58 47° ESE 23:01:54 10° NNE
Cosmos 2058 4.0 22:53:22 10° SSW 22:57:15 42° WNW 23:01:11 10° N
DELTA 2 DEB (DPAF) 4.1 22:58:33 24° SSE 23:01:14 88° ENE 23:05:45 10° NNW
OAO 2 Rocket 4.2 22:57:31 10° SW 23:02:04 29° S 23:03:20 26° SE
Cosmos 1626 2.8 23:01:02 31° SE 23:02:07 38° E 23:05:38 10° NNE
COSMOS 2455 3.8 23:00:31 10° NNW 23:06:06 37° NE 23:10:13 17° ESE
CZ-4 R/B 4.1 23:03:40 10° N 23:08:36 70° WNW 23:13:19 10° SSW
SL-08 RB Rocket 4.1 23:06:50 21° S 23:09:42 57° W 23:14:09 10° NNW
CZ-4B R/B 4.4 23:05:11 10° N 23:10:18 51° WNW 23:15:18 10° SW
H-2A R/B 2.1 23:08:02 25° SSE 23:11:14 82° ENE 23:16:42 10° NNW
Cosmos 2227 Rocket 2.2 23:11:30 20° S 23:15:24 60° ESE 23:20:59 10° NNE
Tiangong 1 1.1 23:14:28 10° WSW 23:17:13 53° SSW 23:17:13 53° SSW
Cosmos 2333 Rocket 2.2 23:22:39 10° NNW 23:28:25 78° WSW 23:31:18 31° SSE
Cosmos 1241 Rocket 4.3 23:22:20 10° SSW 23:28:29 76° ESE 23:34:46 10° NE
Cosmos 192 4.3 23:23:54 10° NNW 23:28:50 75° ENE 23:30:50 36° SSE
SL-16 R/B 2.9 23:23:40 10° NNW 23:29:06 44° ENE 23:32:01 25° ESE
Cosmos 1898 Rocket 4.4 23:24:13 10° SW 23:29:12 47° WNW 23:34:15 10° N
Cosmos 389 Rocket 4.5 23:26:52 10° NNE 23:29:20 17° ENE 23:29:47 17° E
IGS 5A 3.5 23:29:10 37° S 23:30:44 77° WSW 23:34:55 10° NNW
SeaSat 1 3.7 23:29:32 19° ESE 23:32:13 32° NE 23:36:35 10° N
Cosmos 1125 Rocket 3.9 23:33:31 34° SE 23:35:07 44° ESE 23:40:09 10° NNE
Cosmos 1455 2.4 23:33:57 10° NNW 23:37:43 63° W 23:38:49 42° SSW
Nadezhda 1 Rocket 4.2 23:32:38 10° NNW 23:38:40 66° W 23:42:18 25° SSW
COSMOS 2428 4.4 23:35:16 10° NW 23:39:44 24° WSW 23:43:18 14° SSW
SAR-Lupe-2 3.9 23:40:40 44° SSW 23:41:28 56° W 23:45:00 10° NNW
Cosmos 2297 Rocket 2.1 23:39:29 29° S 23:42:26 69° ESE 23:48:04 10° NNE
Okean 1-7 4.0 23:40:44 10° N 23:44:38 33° ENE 23:45:28 30° E
Cosmos 2219 Rocket 3.0 23:42:49 10° NW 23:48:01 41° WSW 23:50:35 26° SSW
Cosmos 1470 Rocket 4.4 23:45:42 21° SW 23:48:13 44° WNW 23:52:23 10° N
Cosmos 1933 Rocket 4.4 23:46:48 21° SW 23:49:26 46° WNW 23:53:45 10° N
NOSS 3-1 (A) 4.4 23:45:49 10° WSW 23:51:36 48° NW 23:58:04 10° NNE
Cosmos 1703 Rocket 3.6 23:47:17 10° N 23:51:38 65° E 23:52:36 49° SE
Cosmos 1869 3.9 23:51:14 10° NNW 23:55:10 50° W 23:56:15 38° SW
